63458 station(s) have been heard in the last 24 hours.

<< 552 553 554 555 556 557 558 >>
  Name/Id Latest heard Comment/Other Map
Symbol G3SDR-2 1788392691 144.800MHz APRS iGate Map
Symbol 9W2FAS-1 1788392691 TTGi PORTKLANG LORA IGATE Batt=4.01V Map
Symbol GM5ELE-15 1788392691 PicoAPRS Map
Symbol EA1FWM-12 1788392690 GaS: 3.55KohmsLoRa_Digi_ Porteleiro_645m Batt=4.04V Map
Symbol G4FNJ-1 1788392690 Map
Symbol 443.275 1788392690 443.275MHz T100 +50000 KG4FZR. .www.mcminnarc.com Map
Symbol VA2DI B 1788392690 70cm Voice (D-Star) 446.25000MHz +0.0000MHz Map
Symbol DN9FUN-N 1788392690 70cm MMDVM Voice (C4FM) 439.83750MHz +0.0000MHz, DN9FUN_Pi-Star_ND Map
Symbol VA2DI-B 1788392690 70cm Voice (D-Star) 446.25000MHz +0.0000MHz Map
Symbol HB9CQZ-10 1788392690 LoRa APRS www.schwarzenberg.ch Map
Symbol SP6RJ-N 1788392690 70cm MMDVM Voice (C4FM) 439.20000MHz +0.0000MHz, SP6RJ_Pi-Star_ND Map
Symbol DO1LAA-11 1788392690 LoRa APRS iGate Wilster RX only Map
Symbol CHRSTIANA 1788392690 Level 1 Trauma W3CER Map
Symbol KB9YEP-10 1788392690 W3,ILn Mattoon,IL Map
Symbol C31ER-N 1788392690 70cm MMDVM Voice (C4FM) 439.80000MHz +0.0000MHz, C31ER_Pi-Star_ND Map
Symbol KK5I-4 1788392690 KK5I-4 Muskogee Amateur Radio Club Map
Symbol CE3RCJ-10 1788392690 LoRa APRS V3.0 Map
Symbol F1ZCK-3 1788392690 Map
Symbol KI6OM-B 1788392690 70cm Voice (D-Star) 447.32500MHz -5.0000MHz Map
Symbol KH6JUZ-13 1788392690 Kapahulu Waikiki Oahu Hawaii USA Map
Symbol M0TYY 1788392690 OpenWebRX APRS gateway Map
Symbol F1ZFH-10 1788392690 LoRa iGATE_F1ZFH , 433.775MHz / Info: F8KLY.fr Map
Symbol F5ZYM-10 1788392690 LoRa APRS Digi SQ2CPA V1.06 Beta Batt=4.27V Map
Symbol IR3UJJ 1788392690 https://brandmeister.network/?page=repeater&id=222374 Map
Symbol KF0BPN-11 1788392690 144.390MHz Evergreen Fill-in digi & TX-igate / HW: DR-135mk3, MC DRA-50, Pi4 / SW: Direwolf1.7 Map
Symbol OE6KCH-1 1788392690 Waldhaus/B=100 Map
Symbol KD9QZO-Y 1788392690 70cm MMDVM Voice (C4FM) 439.72500MHz -5.0000MHz, APRS for DGIdGateway Map
Symbol IR9ZYE 1788392690 https://brandmeister.network/?page=repeater&id=222367 Map
Symbol N8PUM-3 1788392690 phg5360,Wide2-2, Humboldt, MI info N8PUM@arrl.net Map
Symbol ED3YBB-A 1788392690 1.2 Voice 1298.57500MHz -28.0000MHz Map
Symbol LD4LK C 1788392689 2m Voice (D-Star) 145.68750MHz -0.6000MHz Map
Symbol VE9FPG-3 1788392689 Map
Symbol W3BGE-7 1788392689 146.520MHz Coldwater Michigan Map
Symbol VA3AZA B 1788392689 440 Voice 445.82500MHz +0.0000MHz Map
Symbol OK4MD-3 1788392689 Temp: 11.91C Pressure: 1020hPa, Wind: 1.95m/s at 194 Map
Symbol M7ORT-B 1788392689 70cm Voice (D-Star) 438.80000MHz +0.0000MHz Map
Symbol SM6MJW-1 1788392689 Map
Symbol KE7WTC B 1788392689 440 Voice 447.000 -5.00 MHz Map
Symbol LU9XRL-D 1788392689 70cm MMDVM Voice (DMR) 433.12500MHz +0.0000MHz, APRS for DMRGateway Map
Symbol N3TUQ-2 1788392689 .DSVP Map
Symbol G8ZBJ-2 1788392689 144.8MHz 1W out to GP Map
Symbol KE7WTC AD 1788392689 1.2 Data 1246.200 MHz Map
Symbol VE2WFN-12 1788392689 T2WX Map
Symbol IZ7XIQ-13 1788392689 ciao 73 Map
Symbol WA5CC-7 1788392689 147.375 RPTR 107.2 Tone Map
Symbol VE3FE-B 1788392689 70cm Voice (D-Star) 441.00000MHz +0.0000MHz Map
Symbol K4MLO B 1788392689 70cm Voice (D-Star) 433.25000MHz +0.0000MHz Map
Symbol IR1ZWB 1788392689 https://brandmeister.network/?page=repeater&id=222355 Map
Symbol KE7WTC C 1788392689 2m Voice 146.605 -0.600 MHz Map
Symbol DB0HHS 1788392689 144.900MHz Winlink VARA FM Gateway Map